TimeCST,TemperatureF,Dew PointF,Humidity,Sea Level PressureIn,VisibilityMPH,Wind Direction,Wind SpeedMPH,Gust SpeedMPH,PrecipitationIn,Events,Conditions,WindDirDegrees,DateUTC
12:53 AM,46.0,30.9,56,29.93,10.0,SW,4.6,-,N/A,,Clear,220,2014-01-12 06:53:00
1:53 AM,46.9,32.0,56,29.94,10.0,WSW,4.6,-,N/A,,Clear,250,2014-01-12 07:53:00
2:53 AM,46.0,32.0,58,29.97,10.0,West,4.6,-,N/A,,Clear,260,2014-01-12 08:53:00
3:53 AM,39.9,32.0,73,29.98,10.0,Calm,Calm,-,N/A,,Clear,0,2014-01-12 09:53:00
4:53 AM,34.0,28.9,82,30.00,5.0,Calm,Calm,-,N/A,,Haze,0,2014-01-12 10:53:00
5:53 AM,44.1,30.9,60,30.02,7.0,WSW,3.5,-,N/A,,Clear,240,2014-01-12 11:53:00
6:53 AM,43.0,30.9,62,30.06,4.0,WSW,4.6,-,N/A,,Haze,240,2014-01-12 12:53:00
7:30 AM,44.6,32.0,61,30.07,4.0,West,4.6,-,N/A,,Haze,260,2014-01-12 13:30:00
7:53 AM,48.0,33.1,56,30.08,4.0,WSW,3.5,-,N/A,,Haze,250,2014-01-12 13:53:00
8:53 AM,51.1,35.1,54,30.11,10.0,West,4.6,-,N/A,,Clear,280,2014-01-12 14:53:00
9:53 AM,55.9,34.0,44,30.12,10.0,Variable,3.5,-,N/A,,Clear,0,2014-01-12 15:53:00
10:53 AM,57.9,32.0,37,30.11,10.0,WSW,4.6,-,N/A,,Clear,250,2014-01-12 16:53:00
11:53 AM,63.0,30.9,30,30.07,10.0,SW,6.9,-,N/A,,Clear,230,2014-01-12 17:53:00
12:53 PM,64.0,26.1,24,30.05,10.0,Variable,5.8,-,N/A,,Clear,0,2014-01-12 18:53:00
1:53 PM,66.0,26.1,22,30.04,10.0,SW,4.6,-,N/A,,Clear,230,2014-01-12 19:53:00
2:53 PM,64.9,32.0,29,30.05,10.0,South,8.1,-,N/A,,Clear,170,2014-01-12 20:53:00
3:53 PM,66.0,28.0,24,30.06,10.0,Variable,6.9,-,N/A,,Clear,0,2014-01-12 21:53:00
4:53 PM,60.1,30.0,32,30.08,10.0,South,5.8,-,N/A,,Clear,170,2014-01-12 22:53:00
5:53 PM,57.9,30.9,36,30.07,10.0,SSE,5.8,-,N/A,,Clear,160,2014-01-12 23:53:00
6:53 PM,48.9,30.0,48,30.09,10.0,Calm,Calm,-,N/A,,Clear,0,2014-01-13 00:53:00
7:53 PM,55.0,30.9,40,30.07,10.0,South,6.9,-,N/A,,Clear,180,2014-01-13 01:53:00
8:53 PM,55.0,30.9,40,30.07,10.0,South,5.8,-,N/A,,Clear,180,2014-01-13 02:53:00
9:53 PM,55.9,30.0,37,30.06,10.0,South,6.9,-,N/A,,Clear,190,2014-01-13 03:53:00
10:53 PM,55.0,30.0,38,30.05,10.0,Variable,6.9,-,N/A,,Clear,0,2014-01-13 04:53:00
11:53 PM,57.0,28.9,34,30.04,10.0,SSW,5.8,-,N/A,,Clear,200,2014-01-13 05:53:00